TimeEST,TemperatureF,Dew PointF,Humidity,Sea Level PressureIn,VisibilityMPH,Wind Direction,Wind SpeedMPH,Gust SpeedMPH,PrecipitationIn,Events,Conditions,WindDirDegrees,DateUTC
12:51 AM,28.0,27.0,96,30.10,0.5,Calm,Calm,-,N/A,Fog,Light Freezing Fog,0,2013-12-02 05:51:00
1:41 AM,28.4,26.6,93,30.04,1.2,SE,3.5,-,N/A,,Overcast,140,2013-12-02 06:41:00
1:45 AM,28.4,26.6,93,30.04,2.0,SSE,3.5,-,N/A,,Overcast,150,2013-12-02 06:45:00
1:51 AM,28.0,27.0,96,30.09,2.5,South,3.5,-,N/A,,Overcast,180,2013-12-02 06:51:00
2:03 AM,26.6,26.6,100,30.04,6.0,Calm,Calm,-,N/A,,Overcast,0,2013-12-02 07:03:00
2:51 AM,28.0,27.0,96,30.08,3.0,Calm,Calm,-,N/A,,Overcast,0,2013-12-02 07:51:00
2:59 AM,26.6,26.6,100,30.03,4.0,Calm,Calm,-,N/A,,Overcast,0,2013-12-02 07:59:00
3:39 AM,28.4,26.6,93,30.02,3.0,Calm,Calm,-,N/A,,Overcast,0,2013-12-02 08:39:00
3:45 AM,28.4,28.4,100,30.02,1.8,Calm,Calm,-,N/A,,Overcast,0,2013-12-02 08:45:00
3:51 AM,28.0,28.0,100,30.06,1.2,Calm,Calm,-,N/A,,Overcast,0,2013-12-02 08:51:00
4:04 AM,28.4,28.4,100,30.01,1.0,Calm,Calm,-,N/A,,Mist,0,2013-12-02 09:04:00
4:14 AM,28.4,28.4,100,30.02,0.8,Calm,Calm,-,N/A,,Mist,0,2013-12-02 09:14:00
4:51 AM,28.0,27.0,96,30.06,0.5,Calm,Calm,-,N/A,Fog,Light Freezing Fog,0,2013-12-02 09:51:00
5:51 AM,28.9,28.0,96,30.06,0.2,Calm,Calm,-,N/A,Fog,Light Freezing Fog,0,2013-12-02 10:51:00
6:51 AM,28.0,28.0,100,30.05,0.2,Calm,Calm,-,N/A,Fog,Light Freezing Fog,0,2013-12-02 11:51:00
7:51 AM,28.9,28.0,96,30.05,0.2,Calm,Calm,-,N/A,Fog,Light Freezing Fog,0,2013-12-02 12:51:00
8:26 AM,28.4,28.4,100,29.99,0.2,Calm,Calm,-,N/A,Fog,Light Freezing Fog,0,2013-12-02 13:26:00
8:51 AM,28.9,28.9,100,30.05,0.2,Calm,Calm,-,N/A,Fog,Light Freezing Fog,0,2013-12-02 13:51:00
9:11 AM,28.4,28.4,100,29.99,0.2,Calm,Calm,-,N/A,Fog,Light Freezing Fog,0,2013-12-02 14:11:00
9:30 AM,30.2,28.4,93,29.99,1.0,Calm,Calm,-,N/A,,Overcast,0,2013-12-02 14:30:00
9:32 AM,30.2,28.4,93,29.99,1.5,Calm,Calm,-,N/A,,Overcast,0,2013-12-02 14:32:00
9:40 AM,30.2,28.4,93,29.99,2.5,Calm,Calm,-,N/A,,Overcast,0,2013-12-02 14:40:00
9:51 AM,30.0,28.9,96,30.04,3.0,Calm,Calm,-,0.01,,Overcast,0,2013-12-02 14:51:00
10:10 AM,30.2,30.2,100,29.99,3.0,Calm,Calm,-,0.01,,Overcast,0,2013-12-02 15:10:00
10:51 AM,30.0,30.0,100,30.03,2.5,Calm,Calm,-,0.04,,Overcast,0,2013-12-02 15:51:00
10:59 AM,30.2,30.2,100,29.98,1.2,NE,3.5,-,N/A,,Overcast,50,2013-12-02 15:59:00
11:01 AM,30.2,30.2,100,29.98,0.8,NE,3.5,-,N/A,,Overcast,40,2013-12-02 16:01:00
11:15 AM,30.2,30.2,100,29.98,0.2,Calm,Calm,-,N/A,Fog,Light Freezing Fog,0,2013-12-02 16:15:00
11:51 AM,30.9,30.9,100,30.01,0.5,Calm,Calm,-,N/A,Fog,Light Freezing Fog,0,2013-12-02 16:51:00
12:16 PM,30.2,30.2,100,29.96,1.0,Calm,Calm,-,N/A,,Overcast,0,2013-12-02 17:16:00
12:23 PM,30.2,30.2,100,29.95,1.2,Calm,Calm,-,N/A,,Overcast,0,2013-12-02 17:23:00
12:49 PM,30.2,30.2,100,29.95,1.5,Calm,Calm,-,N/A,,Overcast,0,2013-12-02 17:49:00
12:51 PM,30.9,30.9,100,29.99,1.5,Calm,Calm,-,N/A,,Overcast,0,2013-12-02 17:51:00
1:01 PM,30.2,30.2,100,29.95,1.2,Calm,Calm,-,N/A,,Overcast,0,2013-12-02 18:01:00
1:12 PM,30.2,30.2,100,29.95,1.8,Calm,Calm,-,N/A,,Overcast,0,2013-12-02 18:12:00
1:25 PM,32.0,32.0,100,29.95,2.0,Calm,Calm,-,N/A,,Overcast,0,2013-12-02 18:25:00
1:51 PM,32.0,30.9,96,29.99,2.0,Calm,Calm,-,N/A,,Overcast,0,2013-12-02 18:51:00
2:03 PM,32.0,30.2,93,29.93,1.5,ENE,4.6,-,N/A,,Overcast,70,2013-12-02 19:03:00
2:42 PM,32.0,32.0,100,29.93,1.2,Calm,Calm,-,N/A,,Overcast,0,2013-12-02 19:42:00
2:51 PM,32.0,32.0,100,29.98,1.5,Calm,Calm,-,N/A,,Overcast,0,2013-12-02 19:51:00
3:14 PM,32.0,32.0,100,29.93,1.5,Calm,Calm,-,N/A,,Overcast,0,2013-12-02 20:14:00
3:22 PM,32.0,32.0,100,29.92,1.2,Calm,Calm,-,N/A,,Overcast,0,2013-12-02 20:22:00
3:49 PM,32.0,32.0,100,29.91,0.8,ENE,3.5,-,N/A,,Overcast,70,2013-12-02 20:49:00
3:51 PM,32.0,32.0,100,29.96,0.8,ENE,3.5,-,N/A,,Overcast,70,2013-12-02 20:51:00
3:55 PM,32.0,32.0,100,29.92,1.0,Calm,Calm,-,N/A,,Overcast,0,2013-12-02 20:55:00
3:59 PM,32.0,32.0,100,29.91,1.2,Calm,Calm,-,N/A,,Overcast,0,2013-12-02 20:59:00
4:05 PM,32.0,32.0,100,29.92,2.0,Calm,Calm,-,N/A,,Overcast,0,2013-12-02 21:05:00
4:17 PM,32.0,32.0,100,29.92,2.5,Calm,Calm,-,N/A,,Overcast,0,2013-12-02 21:17:00
4:51 PM,32.0,32.0,100,29.96,1.8,Calm,Calm,-,N/A,,Overcast,0,2013-12-02 21:51:00
5:17 PM,32.0,32.0,100,29.92,2.0,Calm,Calm,-,N/A,,Overcast,0,2013-12-02 22:17:00
5:26 PM,32.0,32.0,100,29.92,2.0,SW,3.5,-,N/A,,Overcast,230,2013-12-02 22:26:00
5:33 PM,32.0,32.0,100,29.93,1.8,Calm,Calm,-,N/A,,Overcast,0,2013-12-02 22:33:00
5:46 PM,32.0,32.0,100,29.93,2.0,Calm,Calm,-,N/A,,Overcast,0,2013-12-02 22:46:00
5:51 PM,32.0,32.0,100,29.97,2.0,Calm,Calm,-,N/A,,Overcast,0,2013-12-02 22:51:00
6:40 PM,33.8,32.0,93,29.94,3.0,SSW,3.5,-,N/A,,Overcast,210,2013-12-02 23:40:00
6:51 PM,32.0,32.0,100,29.99,5.0,Calm,Calm,-,N/A,,Overcast,0,2013-12-02 23:51:00
7:51 PM,34.0,33.1,96,29.98,7.0,Calm,Calm,-,N/A,,Overcast,0,2013-12-03 00:51:00
8:14 PM,33.8,32.0,93,29.94,8.0,Calm,Calm,-,N/A,,Overcast,0,2013-12-03 01:14:00
8:41 PM,33.8,32.0,93,29.94,9.0,Calm,Calm,-,N/A,,Overcast,0,2013-12-03 01:41:00
8:51 PM,32.0,32.0,100,29.98,3.0,Calm,Calm,-,N/A,,Overcast,0,2013-12-03 01:51:00
9:06 PM,33.8,32.0,93,29.93,7.0,Calm,Calm,-,N/A,,Overcast,0,2013-12-03 02:06:00
9:34 PM,32.0,30.2,93,29.93,2.0,Calm,Calm,-,N/A,,Mostly Cloudy,0,2013-12-03 02:34:00
9:43 PM,32.0,30.2,93,29.93,4.0,SSE,3.5,-,N/A,,Mostly Cloudy,160,2013-12-03 02:43:00
9:51 PM,32.0,30.9,96,29.98,5.0,South,3.5,-,N/A,,Overcast,170,2013-12-03 02:51:00
10:18 PM,32.0,32.0,100,29.92,1.2,Calm,Calm,-,N/A,,Overcast,0,2013-12-03 03:18:00
10:20 PM,30.2,30.2,100,29.92,0.8,Calm,Calm,-,N/A,,Overcast,0,2013-12-03 03:20:00
10:51 PM,30.9,30.9,100,29.97,1.0,Calm,Calm,-,N/A,,Overcast,0,2013-12-03 03:51:00
10:55 PM,30.2,30.2,100,29.92,1.5,Calm,Calm,-,N/A,,Overcast,0,2013-12-03 03:55:00
11:00 PM,30.2,30.2,100,29.92,1.0,Calm,Calm,-,N/A,,Overcast,0,2013-12-03 04:00:00
11:08 PM,30.2,30.2,100,29.93,0.5,Calm,Calm,-,N/A,Fog,Light Freezing Fog,0,2013-12-03 04:08:00
11:51 PM,30.9,30.9,100,29.97,0.2,Calm,Calm,-,N/A,Fog,Light Freezing Fog,0,2013-12-03 04:51:00